This demonstration page uses our WeatherBlox Daily Observations layout. Learn more.

Left ArrowRight Arrow

Hourly Observations for April 12, 2019

Temp ( °F °C ) Dew Point ( °F °C ) Humidity (%) Winds ( mph kmh ) Pressure ( in mb ) Visibility ( mi km ) Precip ( " mm )
12:52 am 00:52 Cloudy 34 1.1 22 -5.6 61 61 W 24 39 29.50 999 10 16 0.00 0.03
1:52 am 01:52 Cloudy 34 1.1 22 -5.6 61 61 WSW 25 41 29.51 999 10 16 0.00 0.00
2:52 am 02:52 Cloudy 34 1.1 21 -6.1 59 59 W 22 35 29.52 1000 10 16 0.00 0.00
3:52 am 03:52 Cloudy 34 1.1 21 -6.1 59 59 W 25 41 29.53 1000 10 16 0.00 0.00
4:52 am 04:52 Cloudy 34 1.1 21 -6.1 59 59 W 22 35 29.56 1001 10 16 0.00 0.00
5:04 am 05:04 Cloudy 34 1.1 21 -6.1 59 59 W 24 39 29.59 1002 10 16 0.00 0.00
5:52 am 05:52 Cloudy 33 0.6 20 -6.7 58 58 W 24 39 29.59 1002 10 16 0.00 0.00
6:52 am 06:52 Cloudy 32 0 19 -7.2 59 59 W 21 33 29.63 1003 10 16 0.00 0.00
7:52 am 07:52 Cloudy 33 0.6 19 -7.2 56 56 W 21 33 29.67 1005 10 16 0.00 0.00
8:52 am 08:52 Cloudy 33 0.6 19 -7.2 56 56 W 23 37 29.70 1006 10 16 0.00 0.00
9:52 am 09:52 Cloudy 34 1.1 19 -7.2 54 54 W 26 43 29.74 1007 10 16 0.00 0.00
10:52 am 10:52 Cloudy 35 1.7 20 -6.7 54 54 W 20 31 29.77 1008 10 16 0.00 0.00
11:52 am 11:52 Cloudy 36 2.2 20 -6.7 52 52 W 18 30 29.81 1010 10 16 0.00 0.00
12:52 pm 12:52 Cloudy 37 2.8 19 -7.2 48 48 W 20 31 29.84 1011 10 16 0.00 0.00
1:52 pm 13:52 Cloudy 39 3.9 19 -7.2 45 45 W 18 30 29.85 1011 10 16 0.00 0.00
2:52 pm 14:52 Cloudy 41 5 19 -7.2 41 41 W 28 44 29.88 1012 10 16 0.00 0.00
3:52 pm 15:52 Mostly Cloudy 42 5.6 19 -7.2 40 40 WNW 21 33 29.89 1012 10 16 0.00 0.00
4:52 pm 16:52 Mostly Cloudy 43 6.1 19 -7.2 38 38 W 24 39 29.91 1013 10 16 0.00 0.00
5:52 pm 17:52 Cloudy 42 5.6 20 -6.7 41 41 W 17 28 29.94 1014 10 16 0.00 0.00
6:52 pm 18:52 Mostly Cloudy 42 5.6 22 -5.6 45 45 W 15 24 29.96 1015 10 16 0.00 0.00
7:52 pm 19:52 Mostly Cloudy 41 5 18 -7.8 39 39 W 15 24 29.99 1016 10 16 0.00 0.00
8:52 pm 20:52 Partly Cloudy 38 3.3 20 -6.7 48 48 W 8 13 30.02 1017 10 16 0.00 0.00
9:52 pm 21:52 Partly Cloudy 36 2.2 21 -6.1 55 55 W 8 13 30.05 1018 10 16 0.00 0.00
10:52 pm 22:52 Mostly Clear 36 2.2 21 -6.1 55 55 W 9 15 30.06 1018 10 16 0.00 0.00
11:52 pm 23:52 Mostly Clear 36 2.2 22 -5.6 57 57 WSW 7 11 30.06 1018 10 16 0.00 0.00

Powered by AerisWeather